• In France
  • List of Countries
  • For 7 days
  • Water Temperature
  • Satellite Maps
  • Weather Map
  • Weather Widgets
  • user-avatar
    Login

    Hourly Weather Veliko Tarnovo

    Today, 24 September, Sunday

    Time Temperature Precipitation Wind Pressure Humidity
    00:00 +13°C° 0 mm 2 mps 741 mmHg 63%
    01:00 +13°C° 0 mm 2 mps 741 mmHg 64%
    02:00 +13°C° 0 mm 2 mps 741 mmHg 64%
    03:00 +13°C° 0 mm 2 mps 741 mmHg 65%
    04:00 +12°C° 0 mm 2 mps 741 mmHg 66%
    05:00 +12°C° 0 mm 2 mps 741 mmHg 67%
    06:00 +14°C° 0 mm 2 mps 741 mmHg 62%
    07:00 +15°C° 0 mm 2 mps 741 mmHg 58%
    08:00 +17°C° 0 mm 2 mps 741 mmHg 51%
    09:00 +19°C° 0 mm 2 mps 741 mmHg 46%
    10:00 +20°C° 0 mm 3 mps 742 mmHg 41%
    11:00 +22°C° 0 mm 4 mps 742 mmHg 36%
    12:00 +24°C° 0 mm 3 mps 741 mmHg 34%
    13:00 +25°C° 0 mm 3 mps 741 mmHg 33%
    14:00 +25°C° 0 mm 3 mps 741 mmHg 31%
    15:00 +25°C° 0 mm 3 mps 741 mmHg 32%
    16:00 +25°C° 0 mm 3 mps 741 mmHg 33%
    17:00 +24°C° 0 mm 2 mps 741 mmHg 35%
    18:00 +21°C° 0 mm 2 mps 741 mmHg 39%
    19:00 +20°C° 0 mm 1 mps 741 mmHg 44%
    20:00 +18°C° 0 mm 1 mps 741 mmHg 49%
    21:00 +16°C° 0 mm 1 mps 741 mmHg 50%
    22:00 +16°C° 0 mm 1 mps 741 mmHg 51%
    23:00 +16°C° 0 mm 1 mps 742 mmHg 52%

    Tomorrow, 25 September, Monday

    Time Temperature Precipitation Wind Pressure Humidity
    00:00 +16°C° 0 mm 1 mps 742 mmHg 53%
    01:00 +15°C° 0 mm 1 mps 742 mmHg 54%
    02:00 +15°C° 0 mm 1 mps 742 mmHg 54%
    03:00 +15°C° 0 mm 1 mps 742 mmHg 56%
    04:00 +15°C° 0 mm 1 mps 741 mmHg 57%
    05:00 +14°C° 0 mm 1 mps 741 mmHg 58%
    06:00 +16°C° 0 mm 1 mps 742 mmHg 55%
    07:00 +18°C° 0 mm 1 mps 742 mmHg 53%
    08:00 +19°C° 0 mm 1 mps 742 mmHg 50%
    09:00 +20°C° 0 mm 1 mps 742 mmHg 46%
    10:00 +21°C° 0 mm 2 mps 742 mmHg 42%
    11:00 +24°C° 0 mm 3 mps 742 mmHg 38%
    12:00 +24°C° 0 mm 3 mps 742 mmHg 37%
    13:00 +25°C° 0 mm 3 mps 742 mmHg 35%
    14:00 +25°C° 0 mm 3 mps 742 mmHg 34%
    15:00 +25°C° 0 mm 3 mps 741 mmHg 36%
    16:00 +24°C° 0 mm 3 mps 741 mmHg 38%
    17:00 +24°C° 0 mm 3 mps 741 mmHg 40%
    18:00 +21°C° 0 mm 3 mps 741 mmHg 45%
    19:00 +20°C° 0 mm 2 mps 742 mmHg 50%
    20:00 +19°C° 0 mm 2 mps 742 mmHg 55%
    21:00 +18°C° 0 mm 2 mps 742 mmHg 61%
    22:00 +17°C° 0 mm 2 mps 742 mmHg 66%
    23:00 +16°C° 0 mm 1 mps 742 mmHg 71%

    Day after tomorrow, 26 September, Tuesday

    Time Temperature Precipitation Wind Pressure Humidity
    00:00 +16°C° 0 mm 1 mps 742 mmHg 75%
    01:00 +15°C° 0 mm 1 mps 741 mmHg 79%
    02:00 +15°C° 0 mm 1 mps 741 mmHg 83%
    03:00 +14°C° 0 mm 1 mps 741 mmHg 85%
    04:00 +14°C° 0 mm 1 mps 741 mmHg 87%
    05:00 +14°C° 0 mm 1 mps 741 mmHg 88%
    06:00 +15°C° 0 mm 1 mps 741 mmHg 84%
    07:00 +15°C° 0 mm 2 mps 741 mmHg 80%
    08:00 +16°C° 0 mm 2 mps 741 mmHg 76%
    09:00 +18°C° 0 mm 2 mps 741 mmHg 71%
    10:00 +19°C° 0 mm 3 mps 742 mmHg 65%
    11:00 +20°C° 0 mm 3 mps 742 mmHg 59%
    12:00 +21°C° 0.2 mm 3 mps 742 mmHg 58%
    13:00 +21°C° 0.2 mm 3 mps 742 mmHg 56%
    14:00 +22°C° 0.2 mm 4 mps 742 mmHg 55%
    15:00 +21°C° 0.6 mm 4 mps 742 mmHg 59%
    16:00 +21°C° 0.6 mm 4 mps 742 mmHg 62%
    17:00 +21°C° 0.6 mm 4 mps 742 mmHg 66%
    18:00 +19°C° 0.5 mm 4 mps 742 mmHg 70%
    19:00 +18°C° 0.5 mm 3 mps 742 mmHg 75%
    20:00 +17°C° 0.5 mm 3 mps 743 mmHg 80%
    21:00 +17°C° 0.1 mm 3 mps 743 mmHg 81%
    22:00 +16°C° 0.1 mm 3 mps 743 mmHg 82%
    23:00 +14°C° 0.1 mm 3 mps 743 mmHg 83%

    27 September, Wednesday

    Time Temperature Precipitation Wind Pressure Humidity
    00:00 +15°C° 0 mm 2 mps 743 mmHg 82%
    01:00 +14°C° 0 mm 2 mps 743 mmHg 81%
    02:00 +14°C° 0 mm 2 mps 743 mmHg 81%
    03:00 +13°C° 0 mm 2 mps 744 mmHg 79%
    04:00 +13°C° 0 mm 2 mps 744 mmHg 77%
    05:00 +13°C° 0 mm 2 mps 744 mmHg 75%
    06:00 +13°C° 0 mm 2 mps 744 mmHg 71%
    07:00 +14°C° 0 mm 2 mps 744 mmHg 68%
    08:00 +13°C° 0 mm 3 mps 745 mmHg 64%
    09:00 +16°C° 0 mm 3 mps 745 mmHg 59%
    10:00 +18°C° 0 mm 4 mps 745 mmHg 55%
    11:00 +19°C° 0 mm 4 mps 746 mmHg 51%
    12:00 +20°C° 0 mm 4 mps 746 mmHg 50%
    13:00 +20°C° 0 mm 4 mps 746 mmHg 50%
    14:00 +20°C° 0 mm 4 mps 746 mmHg 50%
    15:00 +20°C° 0 mm 4 mps 746 mmHg 51%
    16:00 +19°C° 0 mm 4 mps 746 mmHg 52%
    17:00 +19°C° 0 mm 3 mps 746 mmHg 53%
    18:00 +18°C° 0 mm 3 mps 746 mmHg 58%
    19:00 +16°C° 0 mm 2 mps 746 mmHg 63%
    20:00 +15°C° 0 mm 2 mps 746 mmHg 67%
    21:00 +14°C° 0 mm 2 mps 747 mmHg 71%
    22:00 +13°C° 0 mm 2 mps 747 mmHg 74%
    23:00 +13°C° 0 mm 2 mps 747 mmHg 78%

    28 September, Thursday

    Time Temperature Precipitation Wind Pressure Humidity
    00:00 +12°C° 0 mm 2 mps 747 mmHg 80%
    01:00 +11°C° 0 mm 1 mps 747 mmHg 82%
    02:00 +11°C° 0 mm 1 mps 746 mmHg 84%
    03:00 +10°C° 0 mm 1 mps 746 mmHg 84%
    04:00 +10°C° 0 mm 1 mps 746 mmHg 84%
    05:00 +10°C° 0 mm 1 mps 746 mmHg 83%
    06:00 +10°C° 0 mm 2 mps 747 mmHg 78%
    07:00 +12°C° 0 mm 2 mps 747 mmHg 72%
    08:00 +11°C° 0 mm 3 mps 747 mmHg 67%
    09:00 +13°C° 0 mm 3 mps 747 mmHg 61%
    10:00 +14°C° 0 mm 4 mps 747 mmHg 55%
    11:00 +17°C° 0 mm 4 mps 747 mmHg 49%
    12:00 +17°C° 0 mm 4 mps 747 mmHg 46%
    13:00 +18°C° 0 mm 4 mps 747 mmHg 44%
    14:00 +19°C° 0 mm 4 mps 746 mmHg 41%
    15:00 +18°C° 0 mm 4 mps 746 mmHg 43%
    16:00 +18°C° 0 mm 4 mps 746 mmHg 45%
    17:00 +17°C° 0 mm 4 mps 746 mmHg 48%
    18:00 +16°C° 0 mm 3 mps 746 mmHg 54%
    19:00 +13°C° 0 mm 3 mps 747 mmHg 60%
    20:00 +13°C° 0 mm 2 mps 747 mmHg 67%
    21:00 +12°C° 0 mm 2 mps 747 mmHg 69%
    22:00 +10°C° 0 mm 2 mps 747 mmHg 72%
    23:00 +9°C° 0 mm 2 mps 747 mmHg 74%

    29 September, Friday

    Time Temperature Precipitation Wind Pressure Humidity
    00:00 +8°C° 0 mm 2 mps 747 mmHg 75%
    01:00 +8°C° 0 mm 2 mps 747 mmHg 77%
    02:00 +8°C° 0 mm 1 mps 746 mmHg 78%
    03:00 +7°C° 0 mm 2 mps 746 mmHg 76%
    04:00 +7°C° 0 mm 2 mps 746 mmHg 75%
    05:00 +7°C° 0 mm 2 mps 746 mmHg 73%
    06:00 +8°C° 0 mm 2 mps 746 mmHg 68%
    07:00 +8°C° 0 mm 2 mps 746 mmHg 64%
    08:00 +9°C° 0 mm 2 mps 746 mmHg 59%
    09:00 +11°C° 0 mm 3 mps 746 mmHg 56%
    10:00 +12°C° 0 mm 3 mps 746 mmHg 52%
    11:00 +13°C° 0 mm 4 mps 746 mmHg 49%
    12:00 +14°C° 0 mm 4 mps 746 mmHg 48%
    13:00 +14°C° 0 mm 4 mps 745 mmHg 48%
    14:00 +14°C° 0 mm 5 mps 745 mmHg 47%
    15:00 +14°C° 0 mm 4 mps 745 mmHg 46%
    16:00 +14°C° 0 mm 4 mps 745 mmHg 45%
    17:00 +14°C° 0 mm 3 mps 745 mmHg 44%
    18:00 +14°C° 0 mm 2 mps 745 mmHg 47%
    19:00 +12°C° 0 mm 2 mps 745 mmHg 50%
    20:00 +11°C° 0 mm 1 mps 745 mmHg 54%
    21:00 +10°C° 0 mm 1 mps 745 mmHg 55%
    22:00 +9°C° 0 mm 1 mps 745 mmHg 57%
    23:00 +9°C° 0 mm 1 mps 744 mmHg 59%
    Show more